Retrouvez les resultats des épreuves Cycling Classics France

 
 
 
 
 
 
 
 
VEUILLEZ INDIQUER VOTRE NOM OU NUMéRO CYCLING CLASSICS FRANCE


2018 - Vaujany GranFondo - SCRATCH
RG.DOS.TEMPSCAT (RG.) POINTS
1 179NIJSSEN KENNY 05:37:41 M (18 - 29) (1) 315.00
2 10GALLEGO MIKAEL 05:42:36 M (40 - 49) (1) 315.00
3 98ALLEMAN TIM 05:44:07 M (30 - 39) (1) 315.00
4 647JENSEN ANDERS KROGH 05:48:05 M (18 - 29) (2) 313.95
5 132DEBERTIN DANIEL 05:50:19 M (18 - 29) (3) 312.90
6 7CARPENTIER JIMMY 05:52:50 M (18 - 29) (4) 311.85
7 775SAEY ARNE 05:53:26 M (18 - 29) (5) 310.80
8 191LUCAT GEOFFREY 05:54:01 M (18 - 29) (6) 309.75
9 188DE VECCHI DAVID 05:57:28 M (40 - 49) (2) 313.95
10 709LORTHIOIR PAUL EMILE 05:58:08 M (18 - 29) (7) 308.70
11 85VAN LANDEGHEM HEDWIG 05:59:55 M (50 - 59) (1) 315.00
12 199WESTSTRATE ROEDI 06:00:04 M (50 - 59) (2) 313.95
13 117GILLING RORY 06:01:12 M (18 - 29) (8) 307.65
14 82EQUY SAMUEL 06:02:22 M (18 - 29) (9) 306.60
15 86DE KERF DANIEL 06:02:37 M (40 - 49) (3) 312.90
16 151HAEGEMAN DAVID 06:04:31 M (30 - 39) (2) 313.95
17 791VANDENABEELE EMILL 06:04:57 M (18 - 29) (10) 305.55
18 183PHANON JEROME 06:05:33 M (40 - 49) (4) 311.85
19 81HUND JONAS 06:08:11 M (18 - 29) (11) 304.50
20 349VAN TONGEREN THIJS 06:08:47 M (30 - 39) (3) 312.90
21 88STEGENGA TJEMME 06:12:19 M (40 - 49) (5) 310.80
22 137ROBINSON ALISTAIR 06:13:25 M (30 - 39) (4) 311.85
23 315NOEL MATHIAS 06:13:44 M (18 - 29) (12) 303.45
24 113VAN DER WEIJST ROBERT 06:16:00 M (18 - 29) (13) 302.40
25 139FELLER MICHAEL 06:16:12 M (18 - 29) (14) 301.35
26 186BONNIN DAVID 06:17:41 M (40 - 49) (6) 309.75
27 161MCGUINNESS GARETH 06:19:40 M (40 - 49) (7) 308.70
28 172BOUDOT ROMAIN 06:23:04 M (40 - 49) (8) 307.65
29 173ROZENBERG MARK 06:23:34 M (30 - 39) (5) 310.80
30 154BORGERS JEROEN 06:24:29 M (30 - 39) (6) 309.75
31 112DE NAYER JAN 06:25:34 M (30 - 39) (7) 308.70
32 520NESCI DAVIDE 06:26:13 M (30 - 39) (8) 307.65
33 129DE WAELE FRANK 06:27:11 M (50 - 59) (3) 312.90
34 149LAUREYS STIJN 06:27:55 M (30 - 39) (9) 306.60
35 94OGUEY SEBASTIEN 06:29:27 M (30 - 39) (10) 305.55
36 310EDELENBOS ROLF 06:29:50 M (50 - 59) (4) 311.85
37 114BORGHS ERIC 06:30:45 M (50 - 59) (5) 310.80
38 178BECARUD THOMAS 06:32:32 M (30 - 39) (11) 304.50
39 150TORNOEE PAGH MORTEN 06:32:58 M (30 - 39) (12) 303.45
40 193FAVRE VERAND JOEL 06:35:59 M (40 - 49) (9) 306.60
41 712CORBIN SIMON 06:36:58 M (18 - 29) (15) 300.30
42 102MARTINSEN BO 06:37:02 M (50 - 59) (6) 309.75
43 866VAN DUYSE JASPER 06:37:45 M (30 - 39) (13) 302.40
44 450OERLEMANS PIETER 06:39:10 M (18 - 29) (16) 299.25
45 84BEULLENS DIRK 06:39:39 M (40 - 49) (10) 305.55
46 801SCHEPENS TOM 06:39:55 M (30 - 39) (14) 301.35
47 100DELEERSNYDER ARNAUD 06:40:12 M (40 - 49) (11) 304.50
48 746HANNING H.J. 06:41:57 M (50 - 59) (7) 308.70
49 474LEHMANN MARTIN 06:42:02 M (40 - 49) (12) 303.45
50 546BABYTCHEFF MARTIAL 06:42:29 M (50 - 59) (8) 307.65
51 92ZAPREYAGAEV SERGEY 06:42:46 M (40 - 49) (13) 302.40
52 97VAN DIJK MARINA 06:42:59 F (18 - 34) (1) 315.00
53 813LUND NODGAARD KASPER 06:43:24 M (18 - 29) (17) 298.20
54 115LAVOCAT ALEXANDRE 06:44:23 M (30 - 39) (15) 300.30
55 176VAN DER LINDEN DAVY 06:46:19 M (30 - 39) (16) 299.25
56 480VAN SUMMEREN FRANK 06:47:26 M (30 - 39) (17) 298.20
57 96MARTIN ANDREW 06:48:05 M (30 - 39) (18) 297.15
58 196POUTOT FRANCIS 06:48:23 M (50 - 59) (9) 306.60
59 800BERGHMANS BART 06:48:59 M (40 - 49) (14) 301.35
60 120PETERS JIM 06:50:01 M (40 - 49) (15) 300.30
61 198ARSENNE BENOIT 06:50:15 M (50 - 59) (10) 305.55
62 536SLIEKER WILFRED 06:51:32 M (30 - 39) (19) 296.10
63 180QUELIN GERARD 06:52:59 M (60 - 66) (1) 315.00
64 850VIERFOND MICKAEL 06:53:13 M (40 - 49) (16) 299.25
65 860MEUNIER LAURENT 06:54:38 M (30 - 39) (20) 295.05
66 159SANCHEZ JEAN MICHEL 06:54:43 M (50 - 59) (11) 304.50
67 425VAN ERP TON 06:55:37 M (40 - 49) (17) 298.20
68 301DE RIDDER JEAN 06:55:43 M (50 - 59) (12) 303.45
69 185ESPOSITO ANDRE 06:56:46 M (67 & +) (1) 315.00
70 402ALLUYN KENNY 06:56:50 M (30 - 39) (21) 294.00
71 426FRANSGAARD ANDERS CHRISTIAN 06:58:26 M (50 - 59) (13) 302.40
72 503VAN HEUGTEN JONDALAR 06:58:33 M (18 - 29) (18) 297.15
73 646JAKOBSEN MARLENE 06:59:04 F (35 - 49) (1) 315.00
74 16ROOSE YANNIK 06:59:25 M (50 - 59) (14) 301.35
75 103SILVENNOINEN OLLI 06:59:55 M (40 - 49) (18) 297.15
76 119MAERSK POUL 07:00:39 M (60 - 66) (2) 313.95
77 111BLADT-HANSEN OLE 07:01:37 M (50 - 59) (15) 300.30
78 469LARSEN THOMAS MULVAD 07:03:00 M (50 - 59) (16) 299.25
79 106TAGE NIELSEN 07:03:32 M (50 - 59) (17) 298.20
80 391TERMEER THIJS 07:03:52 M (18 - 29) (19) 296.10
81 853LIPPI THIERRY 07:04:44 M (50 - 59) (18) 297.15
82 335ADRIAANS WILLEM 07:04:46 M (30 - 39) (22) 292.95
83 390TERMEER REMI 07:06:38 M (40 - 49) (19) 296.10
84 355RAVN NICOLAI 07:07:09 M (30 - 39) (23) 291.90
85 572BARBEDO GUSTAVO 07:08:55 M (40 - 49) (20) 295.05
86 197SCHULLER CELINE 07:09:25 F (35 - 49) (2) 313.95
87 548DEWALD THOMAS 07:09:26 M (50 - 59) (19) 296.10
88 648ERIKSEN FRANK 07:11:17 M (30 - 39) (24) 290.85
89 127KEIJSERS MARK 07:11:46 M (40 - 49) (21) 294.00
90 564BLANCHIN MATHIEU 07:14:51 M (30 - 39) (25) 289.80
91 9LAMONTAGNE PIERRE-MARC 07:15:36 M (60 - 66) (3) 312.90
92 848BOENNELYKKE LASSE HOLM 07:15:56 M (18 - 29) (20) 295.05
93 138VAN DEN BURG RONALD 07:16:19 M (40 - 49) (22) 292.95
94 779JAGER FEDDE 07:16:48 M (30 - 39) (26) 288.75
95 596TIJDINK ROB 07:17:18 M (18 - 29) (21) 294.00
96 110LARSEN CLAUS 07:17:26 M (60 - 66) (4) 311.85
97 170RICHART CLIFF 07:17:32 M (30 - 39) (27) 287.70
98 598DILLING WOUTER 07:18:30 M (18 - 29) (22) 292.95
99 442GALLIE SEBASTIAN 07:18:39 M (40 - 49) (23) 291.90
100 595ARTS DORUS 07:19:14 M (30 - 39) (28) 286.65
101 430DAMGAARD LARS 07:19:21 M (40 - 49) (24) 290.85
102 145RASK JESPER 07:19:25 M (30 - 39) (29) 285.60
103 20CORNU MAURICE 07:19:48 M (67 & +) (2) 313.95
104 452BROUWER LAURENS 07:20:12 M (30 - 39) (30) 284.55
105 841KILROY SEAN 07:20:19 M (50 - 59) (20) 295.05
106 131ALBREKTSEN HENRIK 07:20:27 M (60 - 66) (5) 310.80
107 809FERRAND MATHIEU 07:20:40 M (40 - 49) (25) 289.80
108 597VAN OORSCHOT TOM 07:21:30 M (18 - 29) (23) 291.90
109 471TEMMERMAN REINOUT 07:21:54 M (30 - 39) (31) 283.50
110 134DE JAEGER PETER 07:23:36 M (40 - 49) (26) 288.75
111 748LEGIEDA GRéGORY 07:24:40 M (40 - 49) (27) 287.70
112 104CAREELMAN MICHAEL 07:24:51 M (30 - 39) (32) 282.45
113 398LUDVIG CARSTEN 07:25:55 M (60 - 66) (6) 309.75
114 187LAURENT THOMAS 07:26:07 M (18 - 29) (24) 290.85
115 323AUDENAERT DIDIER 07:26:57 M (50 - 59) (21) 294.00
116 588VISSERS ADRIE 07:27:12 M (50 - 59) (22) 292.95
117 365SMEDEGAARD MORTEN 07:28:00 M (40 - 49) (28) 286.65
118 435MALEYSSON SERGE 07:28:04 M (50 - 59) (23) 291.90
119 194REBUFFEL PIERRICK 07:29:42 M (30 - 39) (33) 281.40
120 366BARZEELE PETER 07:30:01 M (18 - 29) (25) 289.80
121 155ROLLMANN PETER 07:31:22 M (60 - 66) (7) 308.70
122 577FRONTEAU LUDOVIC 07:32:26 M (40 - 49) (29) 285.60
123 849BIGNON AURELIEN 07:32:33 M (30 - 39) (34) 280.35
124 126VAN GELDEREN ELLO 07:33:28 M (40 - 49) (30) 284.55
125 195LEENKNECHT JORDY 07:33:47 M (30 - 39) (35) 279.30
126 802PRINCE JEAN PHILIPPE 07:33:54 M (50 - 59) (24) 290.85
127 863JOSSERAND JEROME 07:34:10 M (50 - 59) (25) 289.80
128 158COSTET CYRIL 07:34:57 M (40 - 49) (31) 283.50
129 851CHIAVAZZA JEAN CLAUDE 07:35:02 M (40 - 49) (32) 282.45
130 407KOCH EDWIN 07:35:05 M (40 - 49) (33) 281.40
131 189VERPOORT EDIAN 07:35:11 M (18 - 29) (26) 288.75
132 508BOUT DAVID 07:35:28 M (40 - 49) (34) 280.35
133 445MOSELEY PAULA 07:36:32 F (35 - 49) (3) 312.90
134 747BERNTSEN PIERRE 07:39:07 M (50 - 59) (26) 288.75
135 569FROMENTIN OLIVIER 07:39:32 M (40 - 49) (35) 279.30
136 587VAN TUIJL TON 07:39:53 M (40 - 49) (36) 278.25
137 484TURNER ROY 07:40:03 M (30 - 39) (36) 278.25
138 156DE VECCHI AMELIE 07:40:18 F (35 - 49) (4) 311.85
139 182STEINER REMY 07:40:42 M (60 - 66) (8) 307.65
140 181THOREAU BRUNO 07:40:53 M (50 - 59) (27) 287.70
141 13STANESCO JOEL 07:44:48 M (67 & +) (3) 312.90
142 423VAN EIJK RUBEN 07:44:58 M (30 - 39) (37) 277.20
143 408BRON ROGIER 07:45:19 M (40 - 49) (37) 277.20
144 507DE BOKX MARC 07:46:55 M (60 - 66) (9) 306.60
145 152MERTENS KOEN 07:47:12 M (50 - 59) (28) 286.65
146 612BASTIAANSE DENNIS 07:47:23 M (30 - 39) (38) 276.15
147 504BORUP MICHAEL 07:47:59 M (40 - 49) (38) 276.15
148 342VAN LOON BAS 07:48:07 M (30 - 39) (39) 275.10
149 475TAX JANNEKE 07:48:21 F (18 - 34) (2) 313.95
150 798DE CLOPPER JIMMY 07:48:43 M (40 - 49) (39) 275.10
151 95VAN DEN BROEK RENE 07:49:53 M (50 - 59) (29) 285.60
152 200REINAUDO CHRISTIAN 07:50:11 M (60 - 66) (10) 305.55
153 792FERNANDEZ ALEXANDRE 07:51:01 M (30 - 39) (40) 274.05
154 146SKOVMOSE HENRIK 07:52:36 M (30 - 39) (41) 273.00
155 147NIELSEN KLAUS 07:52:45 M (40 - 49) (40) 274.05
156 99BERTHELOT DOMINIQUE 07:53:56 M (60 - 66) (11) 304.50
157 400BAKER ALEX 07:54:26 M (40 - 49) (41) 273.00
158 118AVEN JESPER 07:55:10 M (50 - 59) (30) 284.55
159 859DEN BOER RENE 07:58:41 M (60 - 66) (12) 303.45
160 797PERONI SAMUELE 07:59:52 M (40 - 49) (42) 271.95
161 6CARPENTIER PASCAL 08:00:47 M (50 - 59) (31) 283.50
162 372KNUDSEN HARALD 08:02:20 M (50 - 59) (32) 282.45
163 383BEZEMER JURN 08:02:42 M (30 - 39) (42) 271.95
164 302WOERN MIRKO 08:02:51 M (30 - 39) (43) 270.90
165 431BARZILAIJ RONALD 08:03:03 M (30 - 39) (44) 269.85
166 133MACHIELSEN JOHANNES 08:03:35 M (50 - 59) (33) 281.40
167 326AUDENAERT SARAH 08:03:57 F (18 - 34) (3) 312.90
168 489DOUCET JEREMY 08:05:13 M (30 - 39) (45) 268.80
169 411VOERMANS MERIJN 08:07:04 M (30 - 39) (46) 267.75
170 83DUNAND CHRISTIAN 08:08:34 M (60 - 66) (13) 302.40
171 357JOHANNSSON JOHANN 08:09:58 M (30 - 39) (47) 266.70
172 490HABETS MATHIJS 08:10:32 M (18 - 29) (27) 287.70
173 338HEYMANS JAN 08:10:55 M (50 - 59) (34) 280.35
174 136WARE VICTORIA 08:11:23 F (18 - 34) (4) 311.85
175 604DI GIACOMO FABRICE 08:11:46 M (40 - 49) (43) 270.90
176 574CHARLES JEAN MARIE 08:13:33 M (40 - 49) (44) 269.85
177 777SOONS ZITA 08:13:49 F (35 - 49) (5) 310.80
178 192CURCIO ALEXANDRE 08:14:19 M (40 - 49) (45) 268.80
179 354PILKINGTON CHARLIE 08:14:29 M (50 - 59) (35) 279.30
180 494MCCRONE GLEN 08:18:48 M (50 - 59) (36) 278.25
181 476BERARD PIERRE 08:18:56 M (18 - 29) (28) 286.65
182 420EECKHOUT PHILIPPE 08:19:05 M (50 - 59) (37) 277.20
183 799DEL GROSSO VERONICA 08:20:40 F (18 - 34) (5) 310.80
184 861EVRARD PHILIPPE 08:21:27 M (60 - 66) (14) 301.35
185 26CLEMENT LAURENT 08:26:14 M (50 - 59) (38) 276.15
186 862HUISMAN OANE 08:26:18 M (50 - 59) (39) 275.10
187 393RAMSAY BENOIT 08:26:30 M (30 - 39) (48) 265.65
188 582COBBETT JULIUS 08:26:59 M (30 - 39) (49) 264.60
189 304JENSEN HENRIK ABILD 08:28:38 M (50 - 59) (40) 274.05
190 581CORREIA JOSE 08:29:14 M (40 - 49) (46) 267.75
191 540HEMMING JONATHAN 08:29:36 M (50 - 59) (41) 273.00
192 148BACCERINI LUIGI 08:30:04 M (40 - 49) (47) 266.70
193 793BüCHLI JAAP 08:32:57 M (50 - 59) (42) 271.95
194 93OVERBY LARS 08:33:17 M (40 - 49) (48) 265.65
195 614SMITH-WILD STEPHEN 08:36:33 M (18 - 29) (29) 285.60
196 578RUBENSTEIN TERRY 08:36:48 M (60 - 66) (15) 300.30
197 162GUNS KRIS 08:37:23 M (30 - 39) (50) 263.55
198 33BREUILLY YVAN 08:39:14 M (67 & +) (4) 311.85
199 781FRANCOIS ERIC 08:41:18 M (40 - 49) (49) 264.60
200 362FONS CARSTEN 08:41:58 M (50 - 59) (43) 270.90
201 12VANSPRINGEL JOSEPH 08:44:41 M (50 - 59) (44) 269.85
202 539JEAN JOHN 08:45:25 M (30 - 39) (51) 262.50
203 575DAGORN MICKAEL 08:45:56 M (40 - 49) (50) 263.55
204 524CULHANE AIDAN 08:48:40 M (40 - 49) (51) 262.50
205 387DE GEETER AARON 08:49:00 M (30 - 39) (52) 261.45
206 473PRADY LOUIS 08:49:26 M (18 - 29) (30) 284.55
207 815VERVOORT WALTER 08:49:52 M (40 - 49) (52) 261.45
208 609PREVOO HUGUES 08:52:43 M (40 - 49) (53) 260.40
209 443SANDERSON MICHAEL 08:52:47 M (18 - 29) (31) 283.50
210 816VERVOORT MATTHIAS 08:52:53 M (18 - 29) (32) 282.45
211 537MAGEE WILLIAM 08:53:13 M (18 - 29) (33) 281.40
212 649CHRISTENSEN JOHAN SKJODT 08:53:22 M (18 - 29) (34) 280.35
213 805LABBE-LAVIGNE DOMINIQUE 08:53:31 M (50 - 59) (45) 268.80
214 579MOIR CRAIG 08:53:58 M (50 - 59) (46) 267.75
215 829DE VOS WANNES 08:57:15 M (30 - 39) (53) 260.40
216 611SéLéGINE JEAN PHILIPPE 08:58:44 M (40 - 49) (54) 259.35
217 328JACOBSEN KIM 08:59:37 M (60 - 66) (16) 299.25
218 527QUINTENS STANISLAS 09:00:04 M (60 - 66) (17) 298.20
219 856RAGNO PETER 09:03:30 M (50 - 59) (47) 266.70
220 755SPENCER CHARLES 09:03:31 M (50 - 59) (48) 265.65
221 377FAURHOLT JESPER 09:03:34 M (50 - 59) (49) 264.60
222 857GAMBARDELLA BOB 09:03:35 M (50 - 59) (50) 263.55
223 811RADET LAURENT 09:04:22 M (60 - 66) (18) 297.15
224 828DE VOS PETER 09:04:58 M (30 - 39) (54) 259.35
225 751OLIVIER JEAN-PIERRE 09:05:27 M (67 & +) (5) 310.80
226 573SAUVAGE OLIVIER 09:07:19 M (40 - 49) (55) 258.30
227 707MCDIARMID JAMES 09:07:28 M (50 - 59) (51) 262.50
228 165WEBER ROLAND 09:07:49 M (60 - 66) (19) 296.10
229 345BLACKMAN TOBY 09:10:11 M (40 - 49) (56) 257.25
230 790ROUSSELON KEVIN 09:10:26 M (30 - 39) (55) 258.30
231 418MACNAUGHTON PETER 09:11:29 M (60 - 66) (20) 295.05
232 2CHARVET JACQUES 09:12:49 M (67 & +) (6) 309.75
233 568COEN JEAN-JACQUES 09:12:51 M (50 - 59) (52) 261.45
234 439VERHOEF MATTHIJS 09:14:34 M (30 - 39) (56) 257.25
235 101DELAGRANGE ANTOINE 09:15:48 M (60 - 66) (21) 294.00
236 845SAMAIN BEN 09:16:04 M (30 - 39) (57) 256.20
237 140GOES ANDRE 09:17:06 M (60 - 66) (22) 292.95
238 854COUSIN STEPHANE 09:18:27 M (50 - 59) (53) 260.40
239 570HUSSON PHILIPPE 09:18:28 M (50 - 59) (54) 259.35
240 576TUMELAIRE CHARLES 09:18:33 M (40 - 49) (57) 256.20
241 847LOOSVELDT SEM 09:19:05 M (18 - 29) (35) 279.30
242 463DOCKX BERT 09:20:34 M (40 - 49) (58) 255.15
243 505VAN ELDEREN PETER 09:22:18 M (50 - 59) (55) 258.30
244 434VONK ROB 09:24:03 M (50 - 59) (56) 257.25
245 109LUND MICHAEL 09:24:32 M (60 - 66) (23) 291.90
246 190SCOREY WILLIAM 09:25:49 M (30 - 39) (58) 255.15
247 511STREEF HYLKE 09:33:56 M (40 - 49) (59) 254.10
248 795FERIOL PASCAL 09:35:11 M (50 - 59) (57) 256.20
249 776VAUTRIN JULIEN 09:36:53 M (40 - 49) (60) 253.05
250 842WOHLLEBER FRANCOIS 09:38:03 M (30 - 39) (59) 254.10
251 415LACASSE STéPHANE 09:38:45 M (60 - 66) (24) 290.85
252 783FLAMELING HIJLKE 09:39:44 M (50 - 59) (58) 255.15
253 472SCHUEREMANS HANS 09:40:24 M (30 - 39) (60) 253.05
254 488FEYENS STIJN 09:41:19 M (30 - 39) (61) 252.00
255 321CHRISTIANSEN ROLAND 09:41:23 M (50 - 59) (59) 254.10
256 846LOOSVELDT KURT 09:42:29 M (50 - 59) (60) 253.05
257 784DE NEVE STEVEN 09:43:10 M (40 - 49) (61) 252.00
258 785BEDOUET OLIVIER 09:49:48 M (40 - 49) (62) 250.95
259 535JUANJO GARCIA 09:50:29 M (40 - 49) (63) 249.90
260 534ROMERO RAMIREZ LUIS CARLOS 09:50:37 M (40 - 49) (64) 248.85
261 309GOUGEON GILLES 09:51:39 M (60 - 66) (25) 289.80
262 166HANSEN MICHAEL 09:53:39 M (50 - 59) (61) 252.00
263 73RICHARD ROLAND 09:54:47 M (67 & +) (7) 308.70
264 314CHRISTENSEN KIM FRANCK 09:55:03 M (50 - 59) (62) 250.95
265 804SANCHIS JEAN MARC 09:55:09 M (50 - 59) (63) 249.90
266 128DUMESNIL ALAIN 09:59:31 M (60 - 66) (26) 288.75
267 753VAN NES ALLARD 10:00:22 M (50 - 59) (64) 248.85
268 708MCDIARMID FRANCESCA 10:01:31 F (18 - 34) (6) 309.75
269 544PEETERS KOEN 10:02:43 M (40 - 49) (65) 247.80
270 532VASUTOVA YVONA 10:03:20 F (35 - 49) (6) 309.75
271 455OERLEMANS WALTER 10:08:36 M (50 - 59) (65) 247.80
272 436VAN GENUGTEN MICHIEL 10:09:12 M (40 - 49) (66) 246.75
273 542TARDIVEAU DANIEL 10:11:33 M (50 - 59) (66) 246.75
274 501KNIGHT GRAHAM 10:14:32 M (67 & +) (8) 307.65
275 385VAN MAELE STEVEN 10:14:38 M (40 - 49) (67) 245.70
276 510DE JONG ANKE 10:20:25 F (18 - 34) (7) 308.70
277 538CONDAL JORDI 10:23:10 M (50 - 59) (67) 245.70
278 550VAN WILGEN GERRIT 10:25:00 M (50 - 59) (68) 244.65
279 601DE BLOCK LUDWIG 10:27:42 M (40 - 49) (68) 244.65
280 710STOEKENBROEK FRITS 10:31:29 M (60 - 66) (27) 287.70
281 416SMEETS RON 10:32:50 M (40 - 49) (69) 243.60
282 864CHANT WENDY 10:33:01 F (50 & +) (1) 315.00
283 56BOURSET JACQUES 10:33:50 M (60 - 66) (28) 286.65
284 174GARETH COBB 10:34:15 M (30 - 39) (62) 250.95
285 727SOUZA SANDRO 10:36:21 M (40 - 49) (70) 242.55
286 509BAKKER HANS 10:38:18 M (40 - 49) (71) 241.50
287 437RICHARDSON ANGELO 10:42:08 M (40 - 49) (72) 240.45
288 453JABY ERIC 10:43:10 M (50 - 59) (69) 243.60
289 308HEINHUIS EVERT 10:45:22 M (50 - 59) (70) 242.55
290 571NICOLAS GAUTIER 10:53:07 M (30 - 39) (63) 249.90
291 529VAN DER HEIJDEN STEFAN 10:53:59 M (40 - 49) (73) 239.40
292 774DAVID CLAUDE 11:00:58 M (67 & +) (9) 306.60
293 502AIZIER JEAN-PIERRE 11:01:00 M (60 - 66) (29) 285.60
294 479MC KAY CHRISTINE 11:01:29 F (35 - 49) (7) 308.70
295 130LEK AAD 11:10:01 M (60 - 66) (30) 284.55
296 386CHARBONNEAU MICHEL 11:16:09 M (40 - 49) (74) 238.35
297 460JEAN FREDERIC 11:31:12 M (50 - 59) (71) 241.50
298 171LAGAEYSSE HANS 11:32:14 M (50 - 59) (72) 240.45
299 780HUYGENS MAARTEN 11:32:24 M (30 - 39) (64) 248.85
300 478DECABOOTER MAARTEN 11:38:26 M (30 - 39) (65) 247.80
301 441TEPPAZ BRUNO 11:41:05 M (40 - 49) (75) 237.30
302 477SCHUEREMANS PIETER 11:42:36 M (30 - 39) (66) 246.75
303 440PRAULT STéPHANE 11:43:26 M (40 - 49) (76) 236.25


2018 - Vaujany GranFondo - RANDO
DOS.TEMPS